DateTimeUTC,F1_A11,F1_S11,BsB_S11,BsG_S11,BsR_S11,BbsB_S11,BbsG_S11,BbsR_S11,BaB_A11,BaG_A11,BaR_A11,Tu_S11,T_S11,Uu_S11,U_S11,P_S11,T1_A11
2021-07-16T03:00:00Z,00000200,20000000,,,,,,,-000.06,0000.12,-000.08,18.1,24.8,05.9,03.9,0667.3,31.0
2021-07-16T03:01:00Z,00000200,20000000,,,,,,,-000.07,-000.20,0000.12,18.1,24.8,05.9,03.9,0667.3,31.0
2021-07-16T03:02:00Z,00000200,20000000,,,,,,,-000.36,-000.23,-000.28,18.0,24.8,05.7,03.7,0667.3,31.0
2021-07-16T03:03:00Z,00000200,60000000,,,,,,,0000.52,0000.02,-000.22,18.0,24.8,05.6,03.7,0667.3,31.0
2021-07-16T03:04:00Z,00000200,40000000,-000.41,0000.04,0000.11,0000.41,-000.04,-000.53,-000.20,0000.16,0000.35,18.0,24.6,05.7,03.8,0668.2,31.0
2021-07-16T03:05:00Z,00000200,00000000,-000.12,0000.34,0000.14,0000.67,0000.15,0000.01,-000.12,-000.14,-000.26,18.1,24.5,05.6,03.7,0668.3,31.0
2021-07-16T03:06:00Z,00000200,00000000,-000.13,0000.38,0000.19,-000.01,-000.13,0000.37,0000.17,0000.04,0000.44,18.1,24.5,05.7,03.8,0668.3,31.0
2021-07-16T03:07:00Z,00000200,00000000,0001.09,0000.40,0000.01,0000.05,0000.14,-000.09,-000.28,-000.05,-000.05,18.2,24.5,05.7,03.9,0668.3,31.0
2021-07-16T03:08:00Z,00000200,00000000,-000.24,-000.03,0000.03,-000.04,-000.04,-000.00,0000.38,0000.42,-000.01,18.2,24.6,05.7,03.8,0668.3,31.0
2021-07-16T03:09:00Z,00000200,00000000,0000.90,0000.14,-000.03,0000.68,-000.02,-000.32,-000.24,-000.27,0000.05,18.2,24.6,05.5,03.8,0668.3,31.0
2021-07-16T03:10:00Z,00000200,00000000,0000.36,0000.24,-000.07,0000.33,-000.17,0000.07,-000.08,-000.36,-000.09,18.2,24.6,05.5,03.8,0668.3,31.0
2021-07-16T03:11:00Z,00000200,00000000,-000.06,0000.36,0000.23,-000.03,0000.10,0000.19,-000.00,0000.51,0000.09,18.2,24.6,05.7,03.8,0668.3,31.0
2021-07-16T03:12:00Z,00000200,00000000,0000.06,0000.14,-000.01,0000.15,0000.02,0000.32,-000.08,0000.00,0000.16,18.2,24.6,05.7,03.8,0668.4,31.0
2021-07-16T03:13:00Z,00000200,00000000,0000.49,0000.32,0000.11,0000.84,0000.07,0000.28,0000.43,-000.21,-000.53,18.2,24.5,05.5,03.7,0668.3,31.0
2021-07-16T03:14:00Z,00000200,00000000,0000.95,0000.24,0000.01,-000.26,0000.13,-000.02,-000.27,0000.06,0000.23,18.1,24.5,05.5,03.7,0668.4,31.0
2021-07-16T03:15:00Z,00000200,00000000,-000.06,0000.08,0000.29,0000.11,0000.29,-000.13,0000.43,-000.01,-000.00,18.1,24.5,05.5,03.7,0668.4,31.0
2021-07-16T03:16:00Z,00000200,00000000,0000.16,0000.15,0000.02,0000.20,0000.03,-000.11,-000.33,-000.07,0000.13,18.1,24.5,05.5,03.7,0668.4,31.0
2021-07-16T03:17:00Z,00000200,00000000,-000.17,0000.27,0000.09,0000.34,-000.09,0000.10,-000.17,0000.32,-000.13,18.1,24.5,05.6,03.8,0668.4,31.0
2021-07-16T03:18:00Z,00000200,00000000,0000.51,0000.07,0000.04,0000.02,0000.03,-000.03,-000.05,-000.36,-000.25,18.0,24.5,05.5,03.7,0668.4,31.0
2021-07-16T03:19:00Z,00000200,00000000,0000.58,0000.40,0000.05,0000.25,0000.20,-000.19,0000.35,0000.25,0000.04,18.0,24.5,05.6,03.7,0668.4,31.0
2021-07-16T03:20:00Z,00000200,00000000,0000.31,0000.27,0000.24,0000.18,0000.18,0000.08,0000.07,0000.06,0000.23,18.0,24.4,05.5,03.7,0668.4,31.0
2021-07-16T03:21:00Z,00000200,00000000,-000.46,0000.31,-000.08,0000.10,-000.01,0000.28,-000.12,-000.12,-000.26,18.0,24.4,05.5,03.7,0668.4,31.0
2021-07-16T03:22:00Z,00000200,00000000,0000.78,0000.18,0000.03,0000.54,-000.09,-000.04,0000.15,0000.07,0000.20,18.1,24.4,05.4,03.6,0668.4,31.0
2021-07-16T03:23:00Z,00000200,00000000,0000.26,0000.27,0000.26,0000.47,-000.15,-000.07,0000.29,0000.03,0000.48,18.2,24.5,05.4,03.6,0668.4,31.0
2021-07-16T03:24:00Z,00000200,00000000,0000.46,0000.18,0000.24,-000.05,-000.02,0000.18,-000.15,0000.12,-000.38,18.3,24.6,05.3,03.6,0668.4,31.0
2021-07-16T03:25:00Z,00000200,00000000,0000.09,0000.09,0000.02,0000.54,0000.03,-000.03,-000.08,-000.12,0000.06,18.4,24.6,05.2,03.6,0668.4,31.0
2021-07-16T03:26:00Z,00000200,00000000,0000.74,0000.14,-000.07,0000.48,-000.05,-000.07,-000.05,-000.04,0000.14,18.4,24.6,05.2,03.6,0668.4,31.0
2021-07-16T03:27:00Z,00000200,00000000,0000.20,0000.09,-000.01,-000.21,0000.22,0000.40,-000.51,-000.05,-000.41,18.4,24.6,05.2,03.6,0668.5,31.0
2021-07-16T03:28:00Z,00000200,00000000,-000.15,-000.20,0000.09,-000.05,-000.02,-000.19,0000.19,-000.08,0000.04,18.4,24.6,05.1,03.5,0668.5,31.0
2021-07-16T03:29:00Z,00000200,00000000,0000.01,0000.33,0000.13,0000.34,0000.07,0000.30,-000.07,-000.25,-000.03,18.3,24.6,05.0,03.4,0668.5,31.0
2021-07-16T03:30:00Z,00000200,00000000,0000.42,0000.09,0000.09,0000.04,-000.26,-000.02,0000.03,0000.02,-000.19,18.3,24.6,05.1,03.4,0668.5,31.0
2021-07-16T03:31:00Z,00000200,00000000,0000.15,0000.09,-000.02,-000.33,0000.11,-000.18,0000.18,-000.00,0000.27,18.3,24.6,05.1,03.4,0668.6,31.0
2021-07-16T03:32:00Z,00000200,00000000,0000.09,-000.02,-000.12,0000.08,-000.13,0000.13,-000.13,-000.02,-000.16,18.2,24.5,05.0,03.4,0668.6,31.0
2021-07-16T03:33:00Z,00000200,00000000,0000.54,0000.10,-000.08,0000.65,-000.15,-000.15,-000.12,0000.07,0000.21,18.2,24.5,05.1,03.4,0668.6,31.0
2021-07-16T03:34:00Z,00000200,00000000,0000.07,-000.15,-000.13,0000.62,0000.06,-000.16,-000.13,-000.02,-000.51,18.2,24.5,05.0,03.4,0668.6,31.0
2021-07-16T03:35:00Z,00000200,00000000,-000.03,-000.09,0000.18,0000.09,0000.12,-000.14,0000.24,-000.01,0000.44,18.1,24.5,05.0,03.4,0668.6,31.0
2021-07-16T03:36:00Z,00000200,00000000,0000.19,0000.33,0000.36,0000.00,-000.07,-000.04,0000.20,0000.31,0000.32,18.1,24.5,04.9,03.3,0668.6,31.0
2021-07-16T03:37:00Z,00000200,00000000,0000.25,0000.22,0000.05,0000.44,0000.25,-000.12,-000.05,0000.25,-000.51,18.2,24.5,04.9,03.4,0668.6,31.0
2021-07-16T03:38:00Z,00000200,00000000,-000.16,-000.10,0000.28,0000.40,-000.08,0000.06,-000.13,-000.27,0000.27,18.3,24.6,04.9,03.3,0668.6,31.0
2021-07-16T03:39:00Z,00000200,00000000,0000.49,0000.46,0000.01,-000.00,0000.33,-000.16,0000.26,-000.10,-000.03,18.4,24.6,04.8,03.3,0668.6,31.0
2021-07-16T03:40:00Z,00000200,00000000,0000.07,0000.17,0000.20,0000.41,-000.08,-000.06,-000.07,0000.02,0000.03,18.4,24.6,04.9,03.3,0668.6,31.0
2021-07-16T03:41:00Z,00000200,00000000,0000.15,0000.23,0000.17,0000.30,0000.03,0000.01,-000.35,0000.03,-000.14,18.4,24.6,04.9,03.3,0668.6,31.0
2021-07-16T03:42:00Z,00000200,00000000,0000.35,0000.21,-000.28,-000.25,-000.00,-000.06,0000.00,-000.25,-000.26,18.3,24.6,04.7,03.2,0668.6,31.0
2021-07-16T03:43:00Z,00000200,00000000,0000.68,0000.25,0000.05,-000.15,0000.27,0000.08,0000.26,0000.47,0000.30,18.3,24.6,04.7,03.2,0668.7,31.0
2021-07-16T03:44:00Z,00000200,00000000,0000.23,-000.06,-000.01,0000.29,-000.02,0000.27,-000.11,-000.36,-000.24,18.3,24.6,04.7,03.2,0668.7,31.0
2021-07-16T03:45:00Z,00000200,00000000,-000.05,0000.10,0000.22,-000.05,0000.13,0000.09,-000.32,-000.13,-000.06,18.2,24.6,04.7,03.2,0668.7,31.0
2021-07-16T03:46:00Z,00000200,00000000,0000.40,0000.07,0000.13,0000.19,0000.16,0000.23,0000.23,-000.00,-000.19,18.2,24.5,04.7,03.2,0668.7,31.0
2021-07-16T03:47:00Z,00000200,00000000,0000.02,0000.32,-000.05,0000.21,0000.15,-000.22,0000.19,-000.06,0000.14,18.2,24.5,04.6,03.1,0668.8,31.0
2021-07-16T03:48:00Z,00000200,00000000,0000.86,0000.10,0000.02,0000.25,0000.25,-000.07,-000.33,-000.02,0000.18,18.1,24.5,04.7,03.1,0668.8,31.0
2021-07-16T03:49:00Z,00000200,00000000,0000.30,0000.13,0000.36,-000.42,0000.23,-000.25,0000.09,0000.02,-000.02,18.1,24.5,04.6,03.1,0668.8,31.0
2021-07-16T03:50:00Z,00000200,00000000,-000.39,0000.53,0000.24,0000.54,-000.01,0000.21,0000.18,-000.01,-000.38,18.1,24.5,04.7,03.2,0668.8,31.0
2021-07-16T03:51:00Z,00000200,00000000,0000.03,0000.41,0000.08,0000.58,-000.01,0000.25,0000.01,0000.20,0000.17,18.1,24.5,04.6,03.1,0668.8,31.0
2021-07-16T03:52:00Z,00000200,00000000,0000.35,0000.34,0000.10,0000.69,0000.01,-000.07,0000.00,0000.17,0000.54,18.2,24.5,04.5,03.1,0668.8,31.0
2021-07-16T03:53:00Z,00000200,00000000,0000.95,0000.14,0000.17,0000.25,0000.06,-000.04,0000.14,0000.08,-000.38,18.2,24.5,04.6,03.1,0668.9,31.0
2021-07-16T03:54:00Z,00000200,00000000,0000.36,0000.31,-000.27,0000.87,0000.32,-000.05,-000.04,-000.07,0000.37,18.3,24.6,04.6,03.2,0668.9,31.0
2021-07-16T03:55:00Z,00000200,00000000,0000.15,-000.28,-000.14,-000.06,-000.05,-000.34,-000.52,-000.14,-000.15,18.4,24.6,04.5,03.1,0668.9,31.0
2021-07-16T03:56:00Z,00000200,00000000,-000.08,0000.25,0000.05,0000.52,0000.08,-000.18,0000.30,-000.03,0000.03,18.4,24.7,04.6,03.1,0668.9,31.1
2021-07-16T03:57:00Z,00000200,40000000,,,,,,,0000.40,0000.28,-000.17,18.4,24.7,05.1,03.5,0668.9,31.0
2021-07-16T03:58:00Z,00000200,60000000,,,,,,,-000.30,-000.14,-000.21,18.1,24.8,04.6,03.0,0667.9,31.0
2021-07-16T03:59:00Z,00000200,20000000,,,,,,,-000.62,-000.27,0000.08,18.1,24.9,04.6,03.0,0667.9,31.0
